カタログに戻る

FLOCK 4H 8

運用中科学SSO
NORAD 66711·PAYLOAD·🇺🇸 United States

打ち上げ Nov 28, 2025 から Vandenberg Space Force Base

Loading…

次のパス (今後24時間)

TLE

最新Source: CelesTrak SupGP

元期: Sep 14, 2026, 14:44 UTC

1 66711C 25276AX  26257.61423611  .00008027  00000+0  36106-3 0  2571
2 66711  97.4153 329.8874 0004895  74.4177 309.1486 15.21168019    15

AllMySatでFLOCK 4H 8をリアルタイム追跡

Download on the App Store